Perry, FL

1:51 AM EDT on October 22, 2017 (GMT -0400)
Perry

Weather History for K40J - December, 2011

Change the Weather History Date:

Monday, December 26, 2011

  Actual Average (KVLD) Record (KVLD)
Temperature  
Mean Temperature 64 °F -  
Max Temperature 70 °F 59 °F 83 °F (2015)
Min Temperature 57 °F 36 °F 23 °F (1999)
Degree Days  
Heating Degree Days 2    
Growing Degree Days 14 (Base 50)    
Moisture  
Dew Point 49 °F    
Average Humidity 65    
Maximum Humidity 87    
Minimum Humidity 40    
Precipitation  
Precipitation 0.00 in - - ()
Sea Level Pressure  
Sea Level Pressure 30.18 in    
Wind  
Wind Speed 6 mph (NE)    
Max Wind Speed 10 mph    
Max Gust Speed 16 mph    
Averages and records for this station are not official NWS values.
T = Trace of Precipitation, MM = Missing Value Source: NWS Daily Summary

Daily Weather History Graph

Daily Weather History Graph

Search for Another Location

Airport or City:

Trip Planner

Search our weather history database for the weather conditions in past years. The results will help you decide how hot, cold, wet, or windy it might be!

Date:

Astronomy

Dec. 26, 2011 Rise Set
Actual Time 7:28 AM EST 5:41 PM EST
Civil Twilight 7:01 AM EST 6:07 PM EST
Nautical Twilight 6:32 AM EST 6:37 PM EST
Astronomical Twilight 6:02 AM EST 7:06 PM EST
Moon 8:54 AM EST (12/26) 7:59 PM EST (12/26)
Length of Visible Light 11h 05m
Length of Day
10h 13m
Waxing Crescent, 5% of the Moon is Illuminated
Dec 26
Waxing Crescent
Jan 1
First Quarter
Jan 9
Full
Jan 16
Last Quarter
Jan 23
New

Hourly Weather History & Observations

Time (EST) Temp. Dew Point Humidity Pressure Visibility Wind Dir Wind Speed Gust Speed Precip Events Conditions
12:53 AM 60.1 °F 53.1 °F 78% 30.21 in - NNE 3.5 mph - N/A   Unknown
1:53 AM 60.1 °F 53.1 °F 78% 30.21 in - North 3.5 mph - N/A   Unknown
2:53 AM 60.1 °F 53.1 °F 78% 30.21 in - NNE 5.8 mph - N/A   Unknown
3:53 AM 60.1 °F 53.1 °F 78% 30.19 in - NNE 5.8 mph - N/A   Unknown
4:53 AM 60.1 °F 54.0 °F 80% 30.20 in - NNE 5.8 mph - N/A   Unknown
5:53 AM 59.0 °F 55.0 °F 87% 30.20 in - NNE 4.6 mph - N/A   Unknown
6:53 AM 57.9 °F 54.0 °F 87% 30.22 in - NE 4.6 mph - N/A   Unknown
7:53 AM 57.9 °F 54.0 °F 87% 30.24 in - NNE 6.9 mph - N/A   Unknown
8:53 AM 59.0 °F 50.0 °F 72% 30.25 in - NE 6.9 mph - N/A   Unknown
9:53 AM 60.1 °F 46.9 °F 62% 30.25 in - ENE 5.8 mph - N/A   Unknown
10:53 AM 66.9 °F 45.0 °F 45% 30.25 in - NE 8.1 mph - N/A   Unknown
11:53 AM 70.0 °F 45.0 °F 41% 30.23 in - NE 8.1 mph - N/A   Unknown
12:53 PM 69.1 °F 44.1 °F 40% 30.19 in - NE 6.9 mph - N/A   Unknown
1:53 PM 66.9 °F 44.1 °F 44% 30.17 in - NE 9.2 mph - N/A   Unknown
2:53 PM 68.0 °F 44.1 °F 42% 30.16 in - NE 8.1 mph - N/A   Unknown
3:53 PM 68.0 °F 46.0 °F 45% 30.16 in - NE 5.8 mph - N/A   Unknown
4:53 PM 64.9 °F 46.0 °F 50% 30.16 in - NE 6.9 mph - N/A   Unknown
5:53 PM 63.0 °F 46.9 °F 56% 30.14 in - NE 5.8 mph - N/A   Unknown
6:53 PM 62.1 °F 46.9 °F 58% 30.15 in - East 4.6 mph - N/A   Unknown
7:53 PM 63.0 °F 48.9 °F 60% 30.14 in - East 5.8 mph - N/A   Unknown
8:53 PM 62.1 °F 50.0 °F 65% 30.14 in - East 9.2 mph - N/A   Unknown
9:53 PM 61.0 °F 51.1 °F 70% 30.13 in - East 10.4 mph 16.1 mph N/A   Unknown
10:53 PM 60.1 °F 51.1 °F 72% 30.10 in - ESE 10.4 mph - N/A   Unknown
11:53 PM 60.1 °F 52.0 °F 75% 30.06 in - ESE 6.9 mph - N/A   Unknown